Preview of NWS' New Version of Forecast
This preview is not operational and should not be used for support decisions.

Regional Weather Roundup (RWR)

Issued by National Weather Service (NWS)

                            
000
ASUS45 KBOU 171710
RWRCO 

WEATHER ROUNDUP FOR COLORADO
NATIONAL WEATHER SERVICE DENVER/BOULDER CO
1100 AM MDT WED APR 17 2019

NOTE: "FAIR" INDICATES FEW OR NO CLOUDS BELOW 12000 FEET WITH NO
SIGNIFICANT WEATHER AND/OR OBSTRUCTIONS TO VISIBILITY.

COZ001>005-013-030-031-171800-
...NORTHWEST COLORADO...
  
CITY           SKY/WX    TMP DP  RH WIND       PRES   REMARKS
CRAIG          CLOUDY    45  32  60 NW6       30.12R                  
HAYDEN         CLOUDY    41  30  65 W9        30.13R                  
MEEKER         CLOUDY    45  31  58 NE9       30.12R                  
RANGELY        FAIR      50  31  48 N5        30.11R                  
RABBIT EARS PA HVY SNOW N/A N/A N/A W10G20    30.13R VSB<1/4          
STEAMBOAT SPGS CLOUDY    37  34  89 CALM      30.11R                  
WALDEN         CLOUDY    39  30  70 N16       30.09R                  
$$

COZ006>008-011-171800-
...WEST CENTRAL VALLEYS...
  
CITY           SKY/WX    TMP DP  RH WIND       PRES   REMARKS
GRAND JUNCTION FAIR      55  36  48 NW9       30.04R                  
MONTROSE       CLOUDY    49  35  58 N6        30.06R                  
EAGLE          PTSUNNY   46  33  60 E5        30.09R                  
RIFLE          FAIR      55  29  36 VRB5      30.04S                  
DELTA          FAIR      56  37  47 CALM      30.03S                  
NUCLA          FAIR      52  36  54 NW6       30.05S                  
$$

COZ017>023-064>068-171800-
...SOUTHWEST COLORADO...
  
CITY           SKY/WX    TMP DP  RH WIND       PRES   REMARKS
DURANGO        FAIR      54  27  35 SW5       29.95R                  
CORTEZ         FAIR      57  34  41 NW13      29.96S                  
PAGOSA SPRINGS PTSUNNY   54  24  31 E6        29.97R                  
TELLURIDE      FAIR      43  27  52 CALM      30.07S                  
WOLF CREEK PAS FAIR      32  21  64 N9        30.16R WCI  24          
$$

COZ009-010-012-014-032>034-037-058>063-171800-
...CENTRAL COLORADO...
  
CITY           SKY/WX    TMP DP  RH WIND       PRES   REMARKS
ASPEN          PTSUNNY   46  32  58 N9        30.06R                  
BUENA VISTA    PTSUNNY   53  20  27 NW14G21   30.00S                  
COPPER MTN     FLURRIES  32  27  80 W12       30.15R WCI  23          
BERTHOUD PASS  CLOUDY    23  12  63 NW16G25   30.13R WCI  10          
COTTONWOOD PAS CLOUDY    43  19  39 CALM      30.07R                  
GUNNISON       FAIR      46  28  49 VRB3      30.04S                  
GRANBY         PTSUNNY   42  31  65 S7        30.07R                  
KREMMLING      FAIR      46  32  57 NE3       30.07R                  
LEADVILLE      FAIR      40  21  46 N10       30.07R                  
MONARCH PASS   PTSUNNY   32  19  59 W3        30.23S                  
SALIDA         FAIR      55  20  25 CALM      30.06F                  
SUNLIGHT       CLOUDY    30  27  86 CALM      30.18R                  
WILKERSON PASS CLOUDY    36  21  55 SE3       30.14R                  
$$

COZ069>075-171800-
...SAN LUIS VALLEY/SANGRE DE CRISTO MOUNTAINS...
  
CITY           SKY/WX    TMP DP  RH WIND       PRES   REMARKS
ALAMOSA        CLOUDY    49  22  34 VRB3      29.99R                  
DEL NORTE      CLOUDY    52  23  31 E9        30.00S                  
LA VETA PASS   NOT AVBL                                               
SAGUACHE       FAIR      54  23  30 CALM      30.00S                  
$$

COZ035-036-038>040-171800-
...NORTHERN COLORADO FRONT RANGE...
  
CITY           SKY/WX    TMP DP  RH WIND       PRES   REMARKS
DENVER INTL AP PTSUNNY   52  39  61 N10       29.99R                  
AURORA         PTSUNNY   52  39  63 N10G17    30.00R                  
FRONT RANGE AP PTSUNNY   54  41  62 N12       30.00R                  
ERIE MUNI ARPT FAIR      53  40  60 NE3       30.03S                  
BOULDER MUN AP FAIR      54  37  54 SE8       29.97S                  
CENTENNIAL     PTSUNNY   51  39  63 NE7       30.01R                  
BROOMFIELD     NOT AVBL                                               
FORT COLLINS   FAIR      56  40  55 NE10      29.98R                  
LONGMONT       FAIR      57  39  52 E3        30.00R                  
$$

COZ041-046-047-076>085-087-088-171800-
...PIKES PEAK/PALMER DIVIDE AND SOUTHERN FOOTHILLS...
  
CITY           SKY/WX    TMP DP  RH WIND       PRES   REMARKS
COLO. SPRINGS  LGT RAIN  51  37  58 N18       30.00R                  
A. F. ACADEMY  PTSUNNY   59  27  29 NW14      29.99R                  
SCHRIEVER AFB  NOT AVBL                                               
CHEYENNE MTN   SNOWSHWR  42  38  84 NW16      29.96R                  
ELLICOTT         N/A    N/A N/A N/A N26       29.94S                  
FALCON         NOT AVBL                                               
FORT CARSON    LGT RAIN  54  37  54 N21G28    29.98R                  
LIMON          FAIR      54  37  52 N24G37    29.96S                  
MONUMENT HILL  CLOUDY    45  36  70 N16       30.03S                  
CANON CITY     FAIR      64  32  29 SE8G18    29.92S                  
WALSENBURG     NOT AVBL                                               
TRINIDAD       CLOUDY    57  35  43 NE10G21   29.95S                  
$$

COZ042>045-048>051-090-091-171800-
...NORTHEAST COLORADO...
  
CITY           SKY/WX    TMP DP  RH WIND       PRES   REMARKS
GREELEY ARPT   FAIR      58  37  45 N20       29.97R                  
AKRON            N/A     55  38  52 N23G31    29.95R                  
BURLINGTON     FAIR      60  41  49 N21G31    29.91R                  
WRAY           FAIR      59  37  44 N21G30    29.92R                  
YUMA           NOT AVBL                                               
STERLING       FAIR      55  37  50 N25G32    29.94R                  
HOLYOKE        FAIR      59  41  51 NW26G33   29.91R                  
FORT MORGAN      N/A     57  32  38 N21G26    29.98R                  
$$

COZ086-089-092>099-171800-
...SOUTHEAST COLORADO...
  
CITY           SKY/WX    TMP DP  RH WIND       PRES   REMARKS
PUEBLO         PTSUNNY   63  37  38 E6G17     29.92S                  
LA JUNTA       FAIR      64  38  38 N25G35    29.90S                  
LAMAR          FAIR      67  41  38 N25G41    29.85R                  
SPRINGFIELD      N/A     61  38  42 N29G38    29.87R                  
$$